User: anonymous   Login
Location: Unspecified
(0.0000°N, 0.0000°E)
Time: 12:46:07
(UTC+00:00)
Language:

TDRS 9 - Orbit

View from above orbital plane
View from above orbital plane
View from above satellite
View from above satellite

Ground track
Ground track

The orbit data is extracted from the following two-line orbital elements,

1 27389U 02011A   18200.41938347 -.00000121 +00000-0 +00000-0 0  9998
2 27389 006.0588 074.5090 0017002 263.5133 098.0925 01.00272078061474
Epoch (UTC): 19 July 2018 10:03:54
Eccentricity: 0.0017002
inclination: 6.0588°
perigee height: 35714 km
apogee height: 35858 km
right ascension of ascending node: 74.5090°
argument of perigee: 263.5133°
revolutions per day: 1.00272078
mean anomaly at epoch: 98.0925°
orbit number at epoch: 6147

The dashed part of the orbit path shows where the satellite is in the earth's shadow,  

DLR